SCP
0 0 -0 -0 0 0 0 0 -0 -0 -0 0 0 0 0 0 0 0 0 0 0 0 0 0 0 0 0 0 0 0 0 0 -0 0 0 0 0 0 0 0 0 0 -0 0 -0 0 -0
-0 -0 -0 -0 0 0 0 0 -0 -0 -0 0 0 0 0 -0 -0 -0 -0 0 0 0 0 0 0 0 0 0 0 0 -0 -0 -0 0 0 0 0 0 0 0 0 0 -0 0 -0 -0 -0
-0 -0 -0 -0 0 0 0 -0 -0 -0 0 -0 0 0 0 -0 -0 -0 -0 0 0 0 0 0 0 0 0 0 0 0 -0 0 -0 0 0 0 0 0 0 0 0 0 0 0 -0 -0 -0
-0 -0 0 0 0 0 0 0 0 0 0 -0 0 -0 -0 -0 -0 -0 -0 -0 -0 0 0 0 0 0 0 0 0 -0 0 0 0 0 0 0 0 0 0 0 0 0 0 -0 0 -0 -0
0 0 0 0 0 0 0 0 0 0 0 0 0 -0 -0 -0 -0 -0 -0 -0 -0 -0 -0 0 0 0 0 0 0 -0 0 0 0 0 0 0 0 0 0 0 0 0 0 0 -0 -0 -0
-0 -0 0 0 0 0 0 0 0 0 0 0 0 -0 -0 -0 -0 -0 -0 -0 0 -0 0 -0 -0 0 0 -0 -0 0 -0 0 0 0 0 0 0 0 0 0 0 0 0 -0 -0 -0 -0
-0 -0 0 0 0 0 0 0 0 0 0 0 0 -0 -0 -0 -0 -0 0 0 0 0 0 0 0 0 0 0 0 0 0 0 0 0 0 0 0 0 0 0 0 0 0 0 -0 0 0
-0 -0 -0 0 0 0 0 0 0 0 0 0 0 -0 -0 -0 -0 -0 0 0 0 0 0 -0 -0 -0 0 0 0 0 0 0 0 0 0 0 0 0 0 0 0 0 0 -0 0 0 0
-0 -0 -0 -0 0 0 0 0 0 0 0 0 0 -0 -0 -0 -0 0 0 0 -0 0 0 0 -0 0 -0 0 -0 -0 -0 -0 0 0 0 0 0 0 0 0 0 0 0 0 0 0 0
0 0 -0 0 0 0 0 0 0 0 0 0 0 -0 -0 -0 0 0 0 -0 -0 -0 0 0 0 0 0 -0 0 -0 0 0 0 0 0 0 0 0 0 0 0 0 0 0 0 0 0
0 0 0 -0 0 0 0 0 0 0 0 0 0 -0 -0 0 0 0 -0 -0 -0 -0 0 0 0 0 0 0 0 -0 0 0 0 0 0 0 0 0 0 0 0 0 0 0 0 0 0
0 0 0 0 0 0 0 0 0 0 0 0 0 0 -0 0 0 0 0 0 0 0 0 0 0 0 0 0 0 0 0 0 0 0 0 0 0 0 0 0 0 0 0 0 0 -0 0
0 0 0 0 0 0 0 0 0 0 0 0 -0 -0 -0 -0 0 0 0 0 0 0 -0 0 0 0 0 -0 -0 0 0 0 0 0 0 0 0 0 0 0 0 0 0 0 0 0 0
0 0 0 0 0 0 0 0 0 0 0 -0 -0 -0 0 0 0 0 0 -0 0 -0 0 0 0 0 0 0 0 0 -0 0 -0 0 0 0 0 0 0 0 0 0 0 0 0 0 0
0 0 0 0 0 0 0 0 0 0 0 -0 -0 0 0 0 0 0 0 0 0 0 0 0 0 0 0 0 0 0 0 0 0 0 0 0 0 0 0 0 0 0 0 0 0 0 0
0 0 0 0 0 0 0 0 0 0 0 0 0 0 0 0 0 0 -0 -0 0 0 0 0 0 0 0 0 0 0 0 0 0 0 0 0 0 0 0 0 0 0 0 0 0 0 0
0 0 0 0 0 0 0 0 0 0 -0 -0 0 0 0 0 0 -0 -0 0 0 0 0 0 0 0 0 0 0 0 0 0 0 0 0 0 0 0 0 0 0 0 0 0 0 0 0
0 0 0 0 0 0 0 0 0 0 -0 -0 -0 0 0 0 0 0 0 0 0 0 0 0 0 0 0 0 0 0 0 0 0 0 0 0 0 0 0 0 0 0 0 0 0 0 0
0 0 0 0 0 0 0 0 0 0 -0 -0 0 -0 0 0 0 0 0 0 0 0 0 0 0 0 0 0 0 0 0 0 0 0 0 0 0 0 0 0 0 0 0 0 0 0 0
0 0 0 0 0 0 0 0 0 0 0 -0 0 0 0 0 0 0 0 0 0 0 0 0 0 0 0 0 0 0 0 -0 0 0 0 0 0 0 0 0 0 0 0 0 0 0 0
0 0 0 0 0 0 0 0 0 0 0 -0 0 0 -0 0 0 0 0 0 0 0 0 0 0 0 0 0 0 0 0 0 0 -0 0 0 0 0 0 0 0 0 0 0 0 0 0
0 0 0 0 0 0 0 0 0 0 0 0 0 0 0 0 0 0 0 0 0 0 0 0 0 0 0 0 0 0 0 0 0 0 0 0 0 0 0 0 0 0 0 0 0 0 0
0 0 0 0 0 0 0 -0 0 0 0 0 -0 0 0 0 0 0 0 0 0 0 0 0 0 0 0 0 0 0 0 0 0 0 0 0 0 0 -0 0 0 0 0 0 0 0 0
0 0 0 0 0 0 0 -0 -0 -0 0 -0 0 0 0 0 -0 0 0 0 0 0 0 0 0 0 0 0 0 0 0 0 0 0 0 0 0 0 0 0 0 0 0 0 0 0 0
0 0 0 0 0 0 0 0 -0 -0 0 0 0 0 0 0 0 0 0 0 0 0 0 0 0 0 0 0 0 0 0 0 0 0 0 0 0 0 0 0 0 0 0 0 0 0 1
0 0 0 0 0 0 0 0 0 -0 0 0 0 0 0 0 0 0 0 0 0 0 0 0 0 0 0 0 0 0 0 0 0 0 0 0 0 0 0 0 0 0 0 0 0 1 1
0 0 0 0 0 0 0 0 0 -0 0 0 0 0 0 0 0 0 0 0 0 0 0 -0 -0 0 0 0 0 -0 0 0 0 0 0 0 0 0 0 0 0 0 0 0 0 1 0
0 0 0 0 0 0 0 0 -0 -0 0 0 0 0 0 0 0 0 0 0 0 0 -0 -0 -0 0 0 0 0 -0 0 -0 0 0 0 0 0 0 0 0 0 0 0 0 0 0 0
0 0 0 0 0 0 0 0 0 0 0 0 0 0 0 0 0 0 0 0 0 -0 -0 -0 -0 0 0 0 0 0 0 -0 -0 0 0 0 0 0 0 0 0 0 1 0 1 0 0
Wind_Speed_500mb
52 52 49 47 47 49 48 45 43 43 43 45 47 50 53 51 46 40 38 36 35 30 28 28 23 19 16 13 26 16 14 12 12 12 30 25 23 30 18 24 20 8 11 30 39 44 46
56 55 48 43 44 47 48 45 43 43 44 46 49 53 54 50 47 43 37 36 32 27 26 23 20 16 12 13 6 7 12 11 7 11 24 23 25 28 33 31 18 17 31 28 39 41 45
54 54 48 42 42 46 49 48 46 45 47 48 50 53 55 52 45 42 39 36 27 25 23 19 17 14 19 38 9 4 9 21 10 13 18 25 28 31 21 19 33 22 20 15 46 31 30
63 56 52 43 42 47 50 49 48 47 47 49 51 55 57 53 46 39 38 32 26 23 20 15 11 12 18 3 14 25 23 16 13 28 14 24 21 31 29 25 29 15 14 11 21 18 42
69 63 52 44 42 47 51 51 51 50 50 51 52 54 55 52 43 36 32 30 22 15 13 11 5 9 20 10 22 28 24 23 24 20 23 26 18 25 29 7 11 12 12 20 32 25 32
67 63 60 48 42 46 50 52 52 51 50 52 53 55 53 48 38 31 25 31 17 9 5 8 12 19 17 23 16 15 16 24 23 20 30 27 3 7 7 4 14 17 16 18 21 20 25
66 65 63 53 42 46 50 54 55 56 53 53 55 54 48 42 32 19 27 29 16 9 20 19 30 16 16 6 11 11 12 29 28 26 12 26 8 14 19 20 21 26 20 24 19 9 8
64 71 63 57 44 46 51 55 58 58 54 54 55 52 43 33 16 14 20 23 16 16 22 33 43 49 35 16 12 23 20 17 23 14 18 12 19 19 23 25 31 32 29 28 19 23 20
66 70 65 61 52 48 53 57 61 61 56 57 56 48 37 22 10 15 17 17 19 22 10 28 31 34 28 20 19 26 33 39 13 18 17 19 17 32 32 24 27 28 19 18 14 16 32
60 69 69 67 57 50 53 57 63 64 59 58 52 44 31 18 6 16 12 20 21 12 5 11 20 14 13 11 14 25 36 27 15 22 25 16 35 32 30 27 18 18 18 29 26 6 13
54 63 69 71 64 54 55 59 64 63 60 56 49 42 22 17 8 12 23 25 22 8 8 26 19 17 21 21 7 12 15 26 19 19 12 19 30 27 30 30 24 16 21 17 25 12 11
58 62 66 72 66 57 56 59 62 60 60 55 47 42 22 12 8 16 28 26 12 3 8 13 17 17 12 20 29 21 12 20 22 16 24 18 39 30 30 24 25 25 16 15 14 6 7
59 63 66 73 75 61 56 59 63 60 57 54 47 37 23 17 9 10 24 21 3 7 3 8 4 8 17 20 23 14 16 13 9 5 12 20 24 25 27 15 12 12 3 5 7 7 12
58 63 69 72 80 59 52 55 60 58 56 55 46 20 11 4 1 15 20 6 6 19 26 10 13 13 14 20 16 13 12 12 20 19 11 12 15 18 20 17 14 16 15 10 14 8 12
58 63 71 72 75 61 51 54 59 55 53 56 39 16 8 2 9 10 19 6 6 12 19 21 22 13 14 20 6 7 9 9 12 13 0 11 12 31 23 13 13 15 8 17 9 18 4
59 61 69 66 68 64 50 52 59 55 49 54 43 31 15 7 4 9 4 9 7 21 19 14 10 11 21 18 14 8 9 9 10 16 16 12 12 12 23 16 14 14 12 7 4 7 8
63 63 65 64 61 62 49 51 56 53 47 44 35 15 21 2 5 14 6 9 14 24 16 12 15 13 24 20 3 19 15 23 30 20 18 11 1 20 16 7 15 7 17 7 5 9 10
71 68 63 59 55 57 51 49 53 53 47 36 11 6 12 5 9 14 8 4 7 16 8 4 9 10 15 21 14 20 15 11 23 19 11 11 6 11 20 28 29 21 18 17 8 17 6
73 72 60 55 55 57 55 39 45 45 47 47 24 16 11 3 5 6 3 4 8 16 20 17 15 20 17 12 11 16 9 12 17 14 7 12 9 7 21 14 19 12 19 14 9 5 13
77 70 56 49 52 58 37 31 37 37 37 35 12 7 9 12 16 14 15 13 15 16 15 18 16 19 9 15 14 10 12 10 10 13 7 2 7 4 7 19 25 19 26 17 10 8 10
73 63 50 42 44 44 30 29 30 28 27 25 4 7 10 8 15 13 10 14 16 15 15 8 11 13 18 12 16 18 25 20 9 20 5 3 8 13 19 26 26 25 31 25 18 15 9
59 57 48 40 42 36 25 26 24 20 17 13 10 12 23 24 12 14 5 8 9 18 15 13 15 22 16 16 14 14 15 15 8 9 5 6 6 13 15 25 26 25 31 28 18 21 16
54 53 41 35 40 27 19 23 19 12 6 4 18 14 10 20 14 3 9 11 14 19 13 16 12 11 17 21 27 30 33 34 27 16 13 12 10 11 10 18 22 19 17 18 17 13 12
54 50 31 33 34 18 16 19 17 12 6 5 12 15 10 10 11 8 14 14 22 17 13 14 13 13 21 26 30 29 36 35 35 32 23 9 10 6 8 13 8 16 23 25 15 44 43
57 40 27 26 21 14 15 17 13 10 4 3 10 10 9 13 8 15 12 25 13 7 2 5 23 12 17 19 8 10 9 9 22 28 16 16 5 7 2 6 17 21 12 16 15 32 44
49 31 28 22 22 16 13 16 11 10 6 9 2 10 6 17 13 15 10 9 3 12 8 13 12 7 11 11 7 4 7 15 9 21 25 17 11 6 8 6 9 10 32 46 28 14 46
46 33 29 24 21 15 11 12 9 9 11 12 2 3 3 12 13 9 11 6 2 4 7 11 7 9 10 4 2 4 8 9 9 11 9 13 8 11 12 9 2 22 33 38 9 6 39
41 32 30 29 22 14 10 9 8 9 13 12 7 7 4 9 6 5 5 10 13 19 5 14 11 8 11 8 5 7 5 6 3 14 16 9 10 7 8 6 11 45 20 12 8 20 37
42 33 22 18 21 12 8 8 11 14 18 15 15 17 5 1 6 3 5 2 6 9 20 17 13 16 13 7 3 5 6 8 12 4 16 7 10 5 6 7 17 48 38 29 25 45 41
Wind_Direction_500mb
3 0 357 357 357 358 359 357 353 354 354 352 351 348 345 337 331 329 332 326 320 316 311 306 300 299 297 278 260 277 282 297 302 229 198 186 233 241 245 249 217 162 200 249 249 253 276
5 2 359 357 356 357 358 355 352 350 349 350 350 349 346 339 330 325 329 326 319 312 312 305 299 293 277 255 196 238 277 281 287 215 191 215 245 230 266 277 276 212 201 250 279 271 262
6 3 359 358 357 358 360 357 353 349 348 348 347 347 346 342 334 326 325 324 317 313 310 299 299 285 251 240 182 251 221 273 211 255 211 234 260 261 243 282 281 285 226 175 256 260 137
3 358 360 357 357 358 358 357 353 350 348 346 345 344 344 344 337 330 325 323 319 313 301 286 280 276 256 280 263 234 262 234 237 222 234 257 256 272 279 284 311 287 297 258 263 226 153
5 4 0 356 356 357 357 357 353 349 347 345 343 342 342 342 337 332 332 324 320 328 308 267 233 268 269 268 237 228 220 231 216 229 238 246 286 250 259 254 320 283 233 236 263 230 142
3 1 358 356 354 354 354 355 352 349 345 343 342 340 340 340 339 339 348 339 330 332 320 286 201 282 256 249 221 231 197 218 229 218 236 235 265 276 258 181 209 234 214 246 237 245 198
2 0 358 354 352 350 350 352 352 347 345 342 341 340 339 341 343 353 23 21 2 41 321 237 286 251 325 258 274 214 199 215 236 224 220 212 174 222 231 227 248 259 268 235 236 263 211
1 2 358 355 348 346 346 348 349 347 344 341 339 339 338 343 9 18 4 22 18 327 301 281 258 262 274 288 289 229 212 236 228 235 206 252 220 236 222 228 232 253 264 270 299 86 75
358 359 359 354 345 340 344 344 346 345 343 340 338 338 337 343 18 9 357 358 352 337 276 291 246 230 236 217 245 236 197 214 208 241 215 216 241 224 248 234 232 241 247 270 262 104 112
353 357 359 356 348 341 341 343 345 344 342 340 338 337 336 344 329 345 11 332 335 330 307 248 181 235 174 224 250 260 188 206 235 214 236 224 234 246 229 252 231 243 239 250 271 60 163
348 353 356 356 351 344 341 343 343 343 340 341 338 335 336 332 335 32 345 341 323 307 349 141 163 155 220 204 98 212 164 217 253 257 209 234 248 240 245 226 250 243 251 261 254 161 122
344 344 348 352 348 341 339 340 342 342 339 338 338 331 322 284 258 3 348 325 319 297 249 140 154 188 212 224 267 137 199 244 281 291 286 252 248 239 240 251 218 247 273 316 318 211 189
342 342 342 346 346 340 335 337 341 341 339 336 337 325 301 256 249 4 343 325 284 247 6 117 225 172 197 221 224 192 180 197 215 237 286 289 253 261 249 247 224 256 161 319 327 329 219
338 340 341 340 344 336 334 336 340 340 340 334 339 332 309 47 105 18 324 310 267 309 7 32 3 348 308 298 203 185 228 207 214 235 272 230 279 237 258 199 206 219 176 169 211 219 232
332 336 339 339 340 339 336 337 338 340 342 333 339 309 281 343 28 31 298 274 337 18 21 355 331 311 283 276 36 324 256 239 26 9 201 17 304 343 270 257 189 269 253 225 269 267 301
326 326 333 335 340 340 336 338 340 340 345 334 335 326 273 80 306 253 264 270 28 45 4 345 317 318 323 1 11 205 259 28 98 54 41 355 328 310 307 295 235 179 240 276 283 247 271
323 322 325 331 333 342 336 339 340 339 344 339 337 331 133 120 199 234 237 267 77 88 30 350 359 330 338 355 47 308 18 27 13 11 26 351 316 293 334 289 192 233 247 272 293 175 189
320 319 320 325 328 331 334 335 340 339 342 343 346 274 194 177 229 224 246 35 316 50 7 12 304 317 357 355 338 345 63 50 21 339 2 51 269 289 282 303 306 215 213 203 165 282 235
320 317 317 316 320 322 324 328 338 339 341 347 336 280 220 137 271 326 222 253 63 45 17 13 346 9 5 347 349 345 88 73 38 49 44 338 308 292 323 328 336 220 235 218 218 256 247
316 312 311 311 320 326 324 330 337 337 335 339 333 290 205 221 8 12 10 335 116 79 67 44 337 327 331 317 306 300 324 148 68 84 68 229 275 299 267 311 322 321 320 242 225 228 260
314 310 306 303 313 323 318 329 337 335 330 341 281 325 19 346 16 338 13 340 346 103 38 61 330 9 22 335 353 9 6 350 178 155 153 238 267 328 317 326 318 313 315 313 237 246 234
311 314 305 299 311 314 312 330 332 331 323 339 335 353 342 302 357 293 157 45 322 81 29 16 2 14 349 33 26 350 0 1 332 346 224 238 280 312 305 298 294 299 301 304 260 254 279
313 313 296 290 298 297 301 320 316 321 321 358 348 307 273 292 262 250 35 45 63 25 106 74 3 0 27 12 342 322 315 307 302 315 343 2 11 344 276 290 312 307 281 300 325 258 269
314 313 289 289 303 269 297 321 306 309 284 256 39 352 302 287 276 61 93 111 80 50 355 76 53 37 7 337 314 297 277 273 287 295 307 309 326 313 295 343 283 256 287 287 289 31 23
311 305 271 288 272 277 296 313 293 287 234 160 58 352 304 300 68 118 145 105 107 157 330 311 68 25 331 326 34 358 318 253 248 281 251 264 276 301 218 280 280 290 16 357 22 32 5
301 283 265 262 264 263 287 310 277 260 209 173 57 327 307 300 25 108 95 57 287 181 194 135 114 47 338 46 59 42 342 295 199 227 215 217 216 178 312 279 248 10 338 321 319 49 347
301 270 252 256 253 250 283 298 254 238 190 178 78 35 274 284 77 30 21 19 89 289 195 104 108 31 26 91 38 230 212 257 296 318 183 197 212 208 252 249 344 338 350 318 47 12 328
294 255 251 243 231 242 275 284 231 209 179 162 129 27 61 327 49 45 33 30 3 359 23 90 49 42 33 48 41 329 283 162 214 306 304 183 166 219 232 255 271 351 33 56 223 72 30
289 240 244 236 232 231 271 264 202 191 171 142 112 358 243 55 48 178 210 93 51 28 1 81 88 68 25 93 116 287 335 319 342 297 1 317 3 310 16 115 64 55 66 55 37 53 42
Wind_Speed_850mb
52 52 49 47 47 49 48 45 43 43 43 45 47 50 53 51 46 40 38 36 35 30 28 28 23 19 16 13 26 16 14 12 12 12 30 25 23 30 18 24 20 8 11 30 39 44 46
56 55 48 43 44 47 48 45 43 43 44 46 49 53 54 50 47 43 37 36 32 27 26 23 20 16 12 13 6 7 12 11 7 11 24 23 25 28 33 31 18 17 31 28 39 41 45
54 54 48 42 42 46 49 48 46 45 47 48 50 53 55 52 45 42 39 36 27 25 23 19 17 14 19 38 9 4 9 21 10 13 18 25 28 31 21 19 33 22 20 15 46 31 30
63 56 52 43 42 47 50 49 48 47 47 49 51 55 57 53 46 39 38 32 26 23 20 15 11 12 18 3 14 25 23 16 13 28 14 24 21 31 29 25 29 15 14 11 21 18 42
69 63 52 44 42 47 51 51 51 50 50 51 52 54 55 52 43 36 32 30 22 15 13 11 5 9 20 10 22 28 24 23 24 20 23 26 18 25 29 7 11 12 12 20 32 25 32
67 63 60 48 42 46 50 52 52 51 50 52 53 55 53 48 38 31 25 31 17 9 5 8 12 19 17 23 16 15 16 24 23 20 30 27 3 7 7 4 14 17 16 18 21 20 25
66 65 63 53 42 46 50 54 55 56 53 53 55 54 48 42 32 19 27 29 16 9 20 19 30 16 16 6 11 11 12 29 28 26 12 26 8 14 19 20 21 26 20 24 19 9 8
64 71 63 57 44 46 51 55 58 58 54 54 55 52 43 33 16 14 20 23 16 16 22 33 43 49 35 16 12 23 20 17 23 14 18 12 19 19 23 25 31 32 29 28 19 23 20
66 70 65 61 52 48 53 57 61 61 56 57 56 48 37 22 10 15 17 17 19 22 10 28 31 34 28 20 19 26 33 39 13 18 17 19 17 32 32 24 27 28 19 18 14 16 32
60 69 69 67 57 50 53 57 63 64 59 58 52 44 31 18 6 16 12 20 21 12 5 11 20 14 13 11 14 25 36 27 15 22 25 16 35 32 30 27 18 18 18 29 26 6 13
54 63 69 71 64 54 55 59 64 63 60 56 49 42 22 17 8 12 23 25 22 8 8 26 19 17 21 21 7 12 15 26 19 19 12 19 30 27 30 30 24 16 21 17 25 12 11
58 62 66 72 66 57 56 59 62 60 60 55 47 42 22 12 8 16 28 26 12 3 8 13 17 17 12 20 29 21 12 20 22 16 24 18 39 30 30 24 25 25 16 15 14 6 7
59 63 66 73 75 61 56 59 63 60 57 54 47 37 23 17 9 10 24 21 3 7 3 8 4 8 17 20 23 14 16 13 9 5 12 20 24 25 27 15 12 12 3 5 7 7 12
58 63 69 72 80 59 52 55 60 58 56 55 46 20 11 4 1 15 20 6 6 19 26 10 13 13 14 20 16 13 12 12 20 19 11 12 15 18 20 17 14 16 15 10 14 8 12
58 63 71 72 75 61 51 54 59 55 53 56 39 16 8 2 9 10 19 6 6 12 19 21 22 13 14 20 6 7 9 9 12 13 0 11 12 31 23 13 13 15 8 17 9 18 4
59 61 69 66 68 64 50 52 59 55 49 54 43 31 15 7 4 9 4 9 7 21 19 14 10 11 21 18 14 8 9 9 10 16 16 12 12 12 23 16 14 14 12 7 4 7 8
63 63 65 64 61 62 49 51 56 53 47 44 35 15 21 2 5 14 6 9 14 24 16 12 15 13 24 20 3 19 15 23 30 20 18 11 1 20 16 7 15 7 17 7 5 9 10
71 68 63 59 55 57 51 49 53 53 47 36 11 6 12 5 9 14 8 4 7 16 8 4 9 10 15 21 14 20 15 11 23 19 11 11 6 11 20 28 29 21 18 17 8 17 6
73 72 60 55 55 57 55 39 45 45 47 47 24 16 11 3 5 6 3 4 8 16 20 17 15 20 17 12 11 16 9 12 17 14 7 12 9 7 21 14 19 12 19 14 9 5 13
77 70 56 49 52 58 37 31 37 37 37 35 12 7 9 12 16 14 15 13 15 16 15 18 16 19 9 15 14 10 12 10 10 13 7 2 7 4 7 19 25 19 26 17 10 8 10
73 63 50 42 44 44 30 29 30 28 27 25 4 7 10 8 15 13 10 14 16 15 15 8 11 13 18 12 16 18 25 20 9 20 5 3 8 13 19 26 26 25 31 25 18 15 9
59 57 48 40 42 36 25 26 24 20 17 13 10 12 23 24 12 14 5 8 9 18 15 13 15 22 16 16 14 14 15 15 8 9 5 6 6 13 15 25 26 25 31 28 18 21 16
54 53 41 35 40 27 19 23 19 12 6 4 18 14 10 20 14 3 9 11 14 19 13 16 12 11 17 21 27 30 33 34 27 16 13 12 10 11 10 18 22 19 17 18 17 13 12
54 50 31 33 34 18 16 19 17 12 6 5 12 15 10 10 11 8 14 14 22 17 13 14 13 13 21 26 30 29 36 35 35 32 23 9 10 6 8 13 8 16 23 25 15 44 43
57 40 27 26 21 14 15 17 13 10 4 3 10 10 9 13 8 15 12 25 13 7 2 5 23 12 17 19 8 10 9 9 22 28 16 16 5 7 2 6 17 21 12 16 15 32 44
49 31 28 22 22 16 13 16 11 10 6 9 2 10 6 17 13 15 10 9 3 12 8 13 12 7 11 11 7 4 7 15 9 21 25 17 11 6 8 6 9 10 32 46 28 14 46
46 33 29 24 21 15 11 12 9 9 11 12 2 3 3 12 13 9 11 6 2 4 7 11 7 9 10 4 2 4 8 9 9 11 9 13 8 11 12 9 2 22 33 38 9 6 39
41 32 30 29 22 14 10 9 8 9 13 12 7 7 4 9 6 5 5 10 13 19 5 14 11 8 11 8 5 7 5 6 3 14 16 9 10 7 8 6 11 45 20 12 8 20 37
42 33 22 18 21 12 8 8 11 14 18 15 15 17 5 1 6 3 5 2 6 9 20 17 13 16 13 7 3 5 6 8 12 4 16 7 10 5 6 7 17 48 38 29 25 45 41
Wind_Direction_850mb
3 0 357 357 357 358 359 357 353 354 354 352 351 348 345 337 331 329 332 326 320 316 311 306 300 299 297 278 260 277 282 297 302 229 198 186 233 241 245 249 217 162 200 249 249 253 276
5 2 359 357 356 357 358 355 352 350 349 350 350 349 346 339 330 325 329 326 319 312 312 305 299 293 277 255 196 238 277 281 287 215 191 215 245 230 266 277 276 212 201 250 279 271 262
6 3 359 358 357 358 360 357 353 349 348 348 347 347 346 342 334 326 325 324 317 313 310 299 299 285 251 240 182 251 221 273 211 255 211 234 260 261 243 282 281 285 226 175 256 260 137
3 358 360 357 357 358 358 357 353 350 348 346 345 344 344 344 337 330 325 323 319 313 301 286 280 276 256 280 263 234 262 234 237 222 234 257 256 272 279 284 311 287 297 258 263 226 153
5 4 0 356 356 357 357 357 353 349 347 345 343 342 342 342 337 332 332 324 320 328 308 267 233 268 269 268 237 228 220 231 216 229 238 246 286 250 259 254 320 283 233 236 263 230 142
3 1 358 356 354 354 354 355 352 349 345 343 342 340 340 340 339 339 348 339 330 332 320 286 201 282 256 249 221 231 197 218 229 218 236 235 265 276 258 181 209 234 214 246 237 245 198
2 0 358 354 352 350 350 352 352 347 345 342 341 340 339 341 343 353 23 21 2 41 321 237 286 251 325 258 274 214 199 215 236 224 220 212 174 222 231 227 248 259 268 235 236 263 211
1 2 358 355 348 346 346 348 349 347 344 341 339 339 338 343 9 18 4 22 18 327 301 281 258 262 274 288 289 229 212 236 228 235 206 252 220 236 222 228 232 253 264 270 299 86 75
358 359 359 354 345 340 344 344 346 345 343 340 338 338 337 343 18 9 357 358 352 337 276 291 246 230 236 217 245 236 197 214 208 241 215 216 241 224 248 234 232 241 247 270 262 104 112
353 357 359 356 348 341 341 343 345 344 342 340 338 337 336 344 329 345 11 332 335 330 307 248 181 235 174 224 250 260 188 206 235 214 236 224 234 246 229 252 231 243 239 250 271 60 163
348 353 356 356 351 344 341 343 343 343 340 341 338 335 336 332 335 32 345 341 323 307 349 141 163 155 220 204 98 212 164 217 253 257 209 234 248 240 245 226 250 243 251 261 254 161 122
344 344 348 352 348 341 339 340 342 342 339 338 338 331 322 284 258 3 348 325 319 297 249 140 154 188 212 224 267 137 199 244 281 291 286 252 248 239 240 251 218 247 273 316 318 211 189
342 342 342 346 346 340 335 337 341 341 339 336 337 325 301 256 249 4 343 325 284 247 6 117 225 172 197 221 224 192 180 197 215 237 286 289 253 261 249 247 224 256 161 319 327 329 219
338 340 341 340 344 336 334 336 340 340 340 334 339 332 309 47 105 18 324 310 267 309 7 32 3 348 308 298 203 185 228 207 214 235 272 230 279 237 258 199 206 219 176 169 211 219 232
332 336 339 339 340 339 336 337 338 340 342 333 339 309 281 343 28 31 298 274 337 18 21 355 331 311 283 276 36 324 256 239 26 9 201 17 304 343 270 257 189 269 253 225 269 267 301
326 326 333 335 340 340 336 338 340 340 345 334 335 326 273 80 306 253 264 270 28 45 4 345 317 318 323 1 11 205 259 28 98 54 41 355 328 310 307 295 235 179 240 276 283 247 271
323 322 325 331 333 342 336 339 340 339 344 339 337 331 133 120 199 234 237 267 77 88 30 350 359 330 338 355 47 308 18 27 13 11 26 351 316 293 334 289 192 233 247 272 293 175 189
320 319 320 325 328 331 334 335 340 339 342 343 346 274 194 177 229 224 246 35 316 50 7 12 304 317 357 355 338 345 63 50 21 339 2 51 269 289 282 303 306 215 213 203 165 282 235
320 317 317 316 320 322 324 328 338 339 341 347 336 280 220 137 271 326 222 253 63 45 17 13 346 9 5 347 349 345 88 73 38 49 44 338 308 292 323 328 336 220 235 218 218 256 247
316 312 311 311 320 326 324 330 337 337 335 339 333 290 205 221 8 12 10 335 116 79 67 44 337 327 331 317 306 300 324 148 68 84 68 229 275 299 267 311 322 321 320 242 225 228 260
314 310 306 303 313 323 318 329 337 335 330 341 281 325 19 346 16 338 13 340 346 103 38 61 330 9 22 335 353 9 6 350 178 155 153 238 267 328 317 326 318 313 315 313 237 246 234
311 314 305 299 311 314 312 330 332 331 323 339 335 353 342 302 357 293 157 45 322 81 29 16 2 14 349 33 26 350 0 1 332 346 224 238 280 312 305 298 294 299 301 304 260 254 279
313 313 296 290 298 297 301 320 316 321 321 358 348 307 273 292 262 250 35 45 63 25 106 74 3 0 27 12 342 322 315 307 302 315 343 2 11 344 276 290 312 307 281 300 325 258 269
314 313 289 289 303 269 297 321 306 309 284 256 39 352 302 287 276 61 93 111 80 50 355 76 53 37 7 337 314 297 277 273 287 295 307 309 326 313 295 343 283 256 287 287 289 31 23
311 305 271 288 272 277 296 313 293 287 234 160 58 352 304 300 68 118 145 105 107 157 330 311 68 25 331 326 34 358 318 253 248 281 251 264 276 301 218 280 280 290 16 357 22 32 5
301 283 265 262 264 263 287 310 277 260 209 173 57 327 307 300 25 108 95 57 287 181 194 135 114 47 338 46 59 42 342 295 199 227 215 217 216 178 312 279 248 10 338 321 319 49 347
301 270 252 256 253 250 283 298 254 238 190 178 78 35 274 284 77 30 21 19 89 289 195 104 108 31 26 91 38 230 212 257 296 318 183 197 212 208 252 249 344 338 350 318 47 12 328
294 255 251 243 231 242 275 284 231 209 179 162 129 27 61 327 49 45 33 30 3 359 23 90 49 42 33 48 41 329 283 162 214 306 304 183 166 219 232 255 271 351 33 56 223 72 30
289 240 244 236 232 231 271 264 202 191 171 142 112 358 243 55 48 178 210 93 51 28 1 81 88 68 25 93 116 287 335 319 342 297 1 317 3 310 16 115 64 55 66 55 37 53 42